Theta_e
309 308 306 307 304 306 306 306 307 307 307 308 307 307 307 307 307 308 311 316 324 326 324 325 324 322 321 318 318 318 318 316 317 315 316 316 315 316 315 314 314 314 314
309 307 306 305 304 306 308 307 306 305 304 305 304 303 302 301 302 303 306 308 317 322 323 324 325 323 322 318 317 318 318 317 316 316 316 316 315 315 313 313 313 313 312
307 305 306 306 306 307 307 306 304 304 303 303 300 299 299 297 297 297 300 302 304 310 317 319 319 321 321 319 318 318 318 316 315 315 314 313 314 314 312 313 312 312 312
308 306 306 305 306 306 306 305 303 301 300 300 297 296 295 295 295 295 297 299 300 301 308 314 314 315 318 319 319 317 316 315 315 314 314 314 314 313 312 312 311 311 312
308 305 304 305 305 306 305 304 302 301 298 297 296 295 294 293 293 294 292 293 296 295 296 306 307 308 312 316 318 317 316 315 313 313 312 313 313 312 312 311 310 311 311
310 307 305 305 303 304 304 304 301 300 299 297 296 294 294 293 294 293 292 292 291 292 292 293 293 296 306 310 314 318 317 315 313 312 312 312 312 312 311 311 310 310 310
310 307 305 305 304 303 303 302 300 298 297 297 296 295 294 294 292 292 292 290 290 290 291 291 291 291 293 304 309 311 314 314 312 311 311 309 310 310 310 310 309 310 309
307 307 305 304 304 302 302 302 300 298 298 298 296 295 291 292 293 292 292 292 288 289 290 291 290 290 290 292 299 306 308 309 309 309 309 309 309 309 309 309 309 309 309
304 304 304 304 303 302 301 302 300 300 296 299 300 297 292 291 291 292 290 290 288 288 288 289 290 290 290 291 295 298 301 303 304 305 305 306 307 307 307 308 308 308 307
300 301 302 302 301 301 300 301 302 301 300 297 299 301 298 296 292 288 290 290 289 289 287 288 288 289 289 290 295 298 299 299 299 300 301 303 303 304 306 306 307 307 307
297 297 300 301 300 299 299 300 300 300 300 300 298 297 297 296 296 293 289 288 289 288 288 287 287 287 288 289 292 296 298 299 298 298 299 300 301 302 304 305 305 305 306
293 294 296 299 299 298 298 298 299 299 299 298 298 298 296 294 293 292 290 288 287 288 288 287 286 286 287 288 293 294 296 297 297 297 297 297 298 299 301 302 303 303 304
289 290 293 296 298 298 298 298 297 297 297 297 296 296 297 295 295 293 291 287 287 287 289 291 290 290 291 292 292 292 293 295 296 296 296 296 296 297 298 299 301 301 302
285 289 291 294 296 298 297 297 296 296 296 295 295 295 296 295 295 294 293 289 286 286 288 288 291 291 291 291 291 291 291 292 293 294 294 294 295 296 296 297 298 299 299
284 286 288 290 293 295 297 297 295 295 295 296 295 295 295 295 295 295 295 295 292 286 285 286 287 289 290 290 290 290 289 290 291 292 293 293 293 294 294 295 296 297 298
283 284 285 287 290 292 293 295 295 295 295 295 295 295 296 295 295 295 294 294 294 291 288 288 288 288 289 289 290 289 288 288 288 290 291 291 292 292 293 293 294 295 295
281 282 284 286 288 289 291 291 292 293 293 293 294 294 294 295 294 293 293 293 292 292 288 287 289 288 286 287 287 288 287 285 285 287 289 289 290 290 290 292 292 293 293
280 281 282 283 285 285 287 288 289 291 291 291 292 293 293 294 293 293 293 292 291 292 289 285 285 285 285 285 285 285 284 283 283 284 288 288 288 288 289 290 290 290 291
279 280 280 280 281 283 284 286 288 289 289 290 290 291 292 292 292 292 292 291 291 291 289 286 285 285 284 284 283 283 283 282 283 284 286 286 286 286 287 288 289 289 289
278 278 279 279 279 281 284 284 286 286 287 288 289 289 290 291 292 291 291 291 290 287 287 286 285 284 284 284 284 282 281 282 282 283 285 284 285 284 285 286 286 287 288
275 275 277 279 279 280 283 285 284 285 285 285 287 288 289 287 288 291 291 290 289 286 286 285 284 284 283 282 282 283 282 281 281 280 280 281 277 278 278 281 283 287 287
274 274 275 276 278 281 284 287 286 283 284 284 285 286 287 287 288 291 292 293 291 287 286 285 285 284 284 283 283 282 282 280 280 281 281 279 274 276 276 279 286 287 287
272 273 275 276 276 279 284 286 287 283 282 283 284 285 285 287 286 287 289 292 291 292 290 287 285 285 283 283 283 283 282 282 281 282 280 279 276 275 276 278 284 286 286
270 272 274 275 276 278 283 285 286 282 281 281 283 284 285 285 286 286 286 287 287 287 287 287 286 286 285 285 284 284 283 282 281 282 282 280 276 276 276 276 282 285 285
270 271 274 275 275 276 282 284 284 282 282 280 282 284 284 285 288 289 286 285 285 285 288 289 289 289 289 288 285 283 281 281 280 280 281 281 280 279 275 274 275 283 283
270 272 273 274 274 275 280 283 284 282 282 280 278 280 284 286 288 290 285 285 284 284 284 283 282 283 283 286 287 284 283 281 280 278 279 280 281 280 275 274 273 273 274
Wind_Speed
2 2 3 3 3 4 4 6 6 4 4 6 6 5 6 6 6 4 5 17 8 11 9 11 12 11 11 10 8 8 9 9 10 9 10 10 11 12 11 13 14 14 14
2 2 3 3 3 3 3 4 6 5 5 5 6 6 6 5 6 6 5 7 17 14 18 20 17 10 11 10 7 9 9 10 10 10 10 10 10 11 12 13 13 14 14
2 2 3 2 3 3 5 3 5 5 6 6 7 5 5 5 5 6 5 5 6 12 12 19 18 17 10 8 9 9 10 9 9 10 10 10 10 12 12 12 13 14 16
4 1 2 3 3 3 2 3 3 5 5 5 5 4 4 4 6 6 5 5 4 4 7 18 14 13 15 7 9 9 9 9 10 10 11 11 12 11 12 12 13 15 16
3 2 2 3 3 3 3 2 2 3 5 6 6 3 4 4 4 4 6 6 6 5 4 14 13 12 13 15 8 9 9 10 9 10 10 10 11 12 12 13 13 15 16
1 1 2 1 3 3 3 3 4 4 3 5 6 5 4 4 3 4 5 5 5 6 6 6 5 6 12 11 14 14 11 11 11 10 10 11 11 12 12 12 14 15 16
4 1 1 2 5 1 2 3 3 7 3 3 4 3 3 3 4 4 4 4 6 5 5 5 4 4 5 12 13 13 14 13 13 11 11 11 11 11 12 13 14 15 16
8 4 0 3 4 0 2 2 2 2 3 3 3 2 2 0 2 3 3 4 4 3 4 5 5 5 4 4 7 12 12 13 12 12 11 11 11 11 11 12 14 15 17
10 8 5 1 3 3 1 1 2 3 1 2 3 2 2 1 2 1 2 4 3 2 2 3 4 4 4 4 6 7 9 10 11 11 10 10 11 11 11 13 14 15 17
13 12 6 4 3 2 2 1 3 2 1 2 0 2 3 3 2 2 0 2 2 1 1 2 3 3 4 3 5 8 7 6 7 8 8 10 10 10 12 13 15 16 17
12 13 10 6 4 3 1 1 1 3 1 1 1 1 1 1 1 1 2 1 1 1 0 1 2 1 3 2 3 5 10 8 6 7 8 9 10 10 12 13 15 17 18
9 12 13 8 4 4 3 3 1 1 1 1 0 1 1 0 2 2 1 1 1 1 2 2 2 2 1 1 3 7 9 9 8 7 8 8 9 10 11 13 14 16 18
9 11 12 11 5 4 3 2 2 3 2 1 0 1 0 1 1 1 3 2 1 1 1 2 2 2 3 3 2 4 7 8 9 8 8 8 8 10 11 13 14 16 18
7 11 10 10 10 4 3 2 1 2 3 2 2 1 1 2 1 1 3 4 1 1 1 2 2 3 2 2 4 5 3 4 7 8 7 7 9 10 12 13 14 16 17
9 12 10 10 11 10 8 4 2 2 1 2 2 2 2 1 1 1 2 2 1 2 2 3 3 3 3 3 3 2 3 3 4 9 8 7 8 9 11 13 14 16 17
12 10 10 9 10 9 9 7 4 3 3 2 1 3 3 0 1 1 1 2 2 3 2 2 2 3 4 2 3 3 3 3 4 7 7 7 9 10 11 12 14 16 17
9 11 10 9 10 10 10 8 7 7 5 5 3 3 2 1 2 1 1 2 3 2 2 1 1 1 2 3 3 3 2 2 1 5 6 6 8 9 10 11 13 15 17
9 10 10 9 9 9 9 10 8 7 7 6 5 3 2 0 2 2 1 2 2 2 3 2 1 1 0 1 2 3 1 1 0 3 6 7 8 9 9 10 12 14 16
10 9 9 9 9 8 8 8 8 7 7 6 5 5 3 1 3 3 3 2 1 2 2 2 2 1 1 1 1 1 1 0 1 4 5 5 7 8 8 10 12 13 15
9 10 9 8 8 7 6 7 8 7 7 6 5 4 4 4 1 2 3 3 2 2 2 2 1 1 1 1 1 1 1 1 1 1 4 3 6 7 8 9 11 13 14
9 8 9 8 7 6 7 8 7 8 8 6 5 5 4 5 5 2 2 3 4 2 1 2 1 1 1 1 2 1 1 1 2 2 1 1 2 2 2 5 7 11 15
11 10 9 8 10 6 14 16 11 6 7 7 7 6 5 5 7 6 1 3 5 4 3 2 1 2 2 2 2 2 1 1 1 1 1 2 1 2 3 1 8 12 14
11 10 10 9 9 9 17 17 14 5 5 5 6 6 6 4 5 5 5 1 3 4 4 4 2 2 1 3 3 3 2 2 1 1 1 1 2 2 2 3 7 11 14
10 10 11 10 9 8 17 17 15 5 4 6 7 6 6 6 5 4 4 2 3 3 3 2 2 2 3 3 4 3 4 3 1 1 1 1 1 2 2 2 5 10 13
10 9 9 11 10 10 17 17 14 5 5 4 4 6 5 6 10 8 3 1 2 3 3 4 6 6 2 3 5 3 2 2 1 1 0 1 1 2 2 3 3 8 10
10 9 11 8 10 10 16 16 12 4 7 5 4 5 10 9 12 10 1 2 2 2 3 2 3 5 7 6 6 2 3 2 2 2 1 1 2 2 3 1 2 3 4
Wind_Direction
47 66 51 60 45 60 73 87 99 78 77 58 58 65 55 47 44 40 48 39 77 132 120 119 124 110 98 89 69 83 76 66 57 49 44 38 27 31 25 22 16 16 12
73 68 86 68 62 62 53 107 118 134 96 74 68 53 53 39 41 41 50 43 48 71 80 72 61 92 97 90 75 72 70 66 51 45 36 32 34 26 22 20 16 9 3
59 72 89 70 71 30 93 79 90 105 98 97 75 60 56 44 40 39 42 39 34 24 73 69 57 40 64 93 94 77 67 64 54 41 31 25 17 27 20 17 14 1 8
124 113 100 108 111 110 102 112 111 94 92 90 88 67 65 58 47 40 42 47 43 26 19 69 51 38 29 57 100 92 78 62 47 43 31 20 20 18 21 13 6 6 5
129 147 180 139 139 116 116 140 85 91 110 101 94 58 71 62 54 56 48 45 44 41 14 57 50 35 32 27 63 96 86 72 52 37 25 26 19 15 18 10 359 5 4
196 119 342 314 139 129 120 87 94 67 88 113 102 75 47 57 57 60 45 42 42 40 40 47 34 18 26 28 31 44 69 70 57 34 26 26 15 13 14 8 3 2 2
15 101 128 78 332 68 40 136 120 125 87 114 100 73 59 47 61 53 71 32 37 40 44 49 42 25 3 26 28 32 30 43 46 30 26 19 14 11 8 8 0 4 1
359 353 276 130 146 228 173 177 157 131 107 166 133 139 153 62 58 48 61 75 37 30 51 50 58 47 35 23 27 25 27 28 28 23 16 18 13 8 7 4 360 3 1
359 10 358 330 146 149 172 99 119 350 49 192 110 139 151 198 99 37 45 86 54 34 35 59 54 50 46 49 44 26 24 27 21 16 9 19 7 8 4 4 358 2 1
9 5 7 3 3 119 91 292 155 131 99 248 49 111 53 102 142 157 301 100 97 77 27 57 61 41 34 21 51 34 33 45 30 15 16 19 7 7 6 2 359 360 359
1 9 356 1 27 9 27 136 282 150 171 184 256 85 119 92 78 162 132 111 112 96 233 115 109 61 34 355 57 26 29 32 37 16 15 16 5 4 4 2 357 358 357
350 4 357 3 359 25 15 349 59 87 202 123 304 222 150 169 193 118 89 117 188 161 198 159 160 164 123 342 58 45 33 22 21 21 10 16 11 358 3 1 1 358 357
351 350 352 353 353 7 35 336 5 70 360 353 182 350 55 309 351 119 109 98 174 173 164 171 193 185 162 161 94 53 26 21 9 14 10 7 2 360 359 1 1 360 356
340 341 354 347 352 359 13 29 39 36 10 313 332 292 338 293 215 248 144 143 145 222 193 192 179 201 169 172 150 140 93 20 5 357 4 3 352 355 356 359 359 360 354
350 346 351 355 357 358 2 352 357 2 316 307 263 287 333 294 45 276 128 112 147 178 214 201 163 210 164 180 163 150 119 44 16 345 349 359 350 350 354 358 358 1 353
350 344 354 360 2 358 1 5 0 343 312 276 304 279 229 222 225 243 158 162 211 174 214 163 177 168 176 154 161 140 111 89 52 335 341 344 349 356 352 354 1 360 352
345 343 353 3 4 1 3 9 9 6 14 358 347 291 282 179 177 164 120 169 191 159 149 153 88 125 137 158 132 124 131 126 41 330 322 328 335 342 345 349 1 357 352
343 348 347 357 354 358 359 6 6 5 8 7 359 349 319 151 220 172 193 183 180 140 122 157 135 120 106 145 161 152 164 131 200 305 311 326 330 333 340 350 5 354 349
342 346 351 352 354 351 349 358 2 6 3 11 356 354 344 214 214 182 180 172 151 127 105 131 151 148 132 145 130 158 181 260 268 270 319 332 328 330 337 351 359 352 350
344 342 342 335 344 340 344 350 358 4 3 9 354 0 356 348 321 193 180 188 164 121 136 119 136 179 143 122 150 212 255 189 280 258 257 272 318 327 331 348 345 341 358
344 332 330 338 333 346 350 354 355 357 0 360 355 7 4 349 335 332 162 160 154 131 127 125 169 175 159 162 229 178 222 103 272 233 303 264 326 310 321 352 329 356 2
345 337 339 336 339 343 348 350 0 359 355 356 350 356 359 8 358 356 291 178 171 164 166 153 193 216 191 176 178 197 162 149 316 172 206 281 28 307 281 346 349 2 1
335 335 335 339 335 329 344 348 351 352 354 347 347 354 353 355 6 346 356 55 157 164 138 162 177 211 222 199 164 185 168 158 212 149 99 299 20 306 291 337 347 0 1
330 330 326 329 328 322 336 341 341 339 351 9 354 344 351 351 355 344 338 102 110 89 91 119 168 244 226 245 190 177 169 121 79 77 39 313 350 276 325 340 341 359 4
326 327 322 321 328 324 330 332 336 333 356 337 341 346 350 354 344 348 343 299 144 111 61 103 83 47 40 142 156 111 96 128 149 55 82 15 333 298 343 334 336 1 9
311 318 318 316 311 316 328 331 330 322 334 332 327 339 360 355 347 354 351 271 244 174 140 75 21 36 46 69 105 75 157 139 116 44 308 41 336 11 341 322 330 337 354